Flag for U.S.A. Weather past 2 weeks in Lakewood, New Jersey, U.S.A.

Now
27 °F

Overcast.


Feels Like: 21 °F
Forecast: 17 / 34 °F
Wind: 5 mph from West

Location: Belmar-Farmdale

Current Time: Feb 1, 2015 at 8:56:02 AM

Latest Report: Feb 1, 2015 at 8:35 AM


Visibility: 10 mi

Pressure: 30.23 "Hg

Humidity: 50%

Dew point: 10 °F

Location of LakewoodLocation

Historic Weather in Lakewood — Graph

°F

Lakewood temperature yesterday

Maximum temperature yesterday: 25 °F (at 1:55 PM)
Minimum temperature yesterday: 12 °F (at 5:35 AM)
Average temperature yesterday: 19 °F

Past Weeks' High & Low Weather Summary

 TemperatureHumidityPressure
High46 °F (Jan 18, 9:15 AM)87% (Jan 18, 8:55 AM)30.40 "Hg (Jan 18, 8:55 AM)
Low10 °F (Jan 29, 5:55 AM)26% (Jan 17, 2:35 PM)29.29 "Hg (Jan 24, 1:35 PM)
Average30 °F60%30.00 "Hg
* Reported Jan 17 7:15 AM — Feb 1 7:55 AM, Lakewood, Weather by CustomWeather, © 2014

Note: Actual official high and low records may vary slightly from our data, if they occured in-between our weather recording intervals... More about our weather records

Advertising

Lakewood weather history for previous 24 hours

 ConditionsComfort  
Time TempWeatherWind HumidityBarometerVisibility
7:55 AM
Feb 1
25 °FOvercast.3 mph54%30.23 "Hg10 mi
7:35 AM25 °FOvercast.6 mph54%30.23 "Hg10 mi
7:15 AM23 °FOvercast.6 mph54%30.23 "Hg10 mi
6:55 AM23 °FOvercast.6 mph54%30.23 "Hg10 mi
6:35 AM21 °FOvercast.6 mph58%30.22 "Hg10 mi
6:15 AM21 °FOvercast.5 mph58%30.22 "Hg10 mi
5:55 AM19 °FOvercast.3 mph58%30.23 "Hg10 mi
5:35 AM19 °FOvercast.6 mph58%30.23 "Hg10 mi
5:15 AM19 °FOvercast.6 mph53%30.22 "Hg10 mi
4:55 AM18 °FOvercast.6 mph58%30.22 "Hg10 mi
4:35 AM18 °FPassing clouds.7 mph58%30.21 "Hg10 mi
4:15 AM18 °FClear.7 mph58%30.20 "Hg10 mi
3:55 AM18 °FClear.6 mph53%30.20 "Hg10 mi
3:35 AM18 °FClear.6 mph53%30.21 "Hg10 mi
3:15 AM18 °FClear.8 mph53%30.21 "Hg10 mi
2:55 AM18 °FClear.6 mph53%30.21 "Hg10 mi
2:35 AM18 °FClear.6 mph53%30.22 "Hg10 mi
2:15 AM18 °FClear.5 mph53%30.21 "Hg10 mi
1:55 AM18 °FClear.5 mph53%30.21 "Hg10 mi
1:35 AM18 °FClear.5 mph53%30.22 "Hg10 mi
1:15 AM18 °FClear.6 mph53%30.22 "Hg10 mi
12:55 AM18 °FClear.5 mph53%30.22 "Hg10 mi
12:35 AM18 °FClear.5 mph49%30.21 "Hg10 mi
12:15 AM18 °FClear.No wind53%30.22 "Hg10 mi
11:55 PM
Jan 31
19 °FClear.5 mph49%30.21 "Hg10 mi
11:35 PM19 °FClear.6 mph49%30.21 "Hg10 mi
11:15 PM18 °FClear.5 mph49%30.21 "Hg10 mi
10:55 PM19 °FClear.5 mph49%30.21 "Hg10 mi
10:15 PM19 °FClear.5 mph45%30.21 "Hg10 mi
9:55 PM19 °FClear.6 mph45%30.21 "Hg10 mi
9:35 PM21 °FClear.5 mph42%30.21 "Hg10 mi
9:15 PM21 °FClear.3 mph42%30.21 "Hg10 mi
8:55 PM21 °FClear.5 mph42%30.21 "Hg10 mi
8:35 PM21 °FClear.6 mph42%30.21 "Hg10 mi
8:15 PM21 °FClear.5 mph42%30.20 "Hg10 mi
7:55 PM21 °FClear.6 mph42%30.20 "Hg10 mi
7:35 PM23 °FClear.7 mph39%30.19 "Hg10 mi
7:15 PM23 °FClear.8 mph39%30.19 "Hg10 mi
6:55 PM25 °FClear.8 mph36%30.18 "Hg10 mi
6:35 PM25 °FClear.14 mph36%30.17 "Hg10 mi
6:15 PM25 °FClear.14 mph36%30.16 "Hg10 mi
5:55 PM25 °FClear.10 mph33%30.15 "Hg10 mi
5:15 PM25 °FClear.17 mph36%30.14 "Hg10 mi
4:55 PM25 °FSunny.18 mph36%30.13 "Hg10 mi
4:35 PM25 °FSunny.21 mph36%30.12 "Hg10 mi
4:15 PM25 °FSunny.20 mph36%30.12 "Hg10 mi
3:35 PM25 °FSunny.18 mph36%30.12 "Hg10 mi
3:15 PM25 °FSunny.20 mph36%30.11 "Hg10 mi
2:55 PM25 °FSunny.17 mph33%30.11 "Hg10 mi
2:35 PM25 °FSunny.23 mph33%30.11 "Hg10 mi
2:15 PM25 °FSunny.23 mph36%30.10 "Hg10 mi
1:55 PM25 °FSunny.15 mph36%30.11 "Hg10 mi
1:35 PM23 °FSunny.23 mph36%30.10 "Hg10 mi
12:55 PM21 °FSunny.24 mph38%30.11 "Hg10 mi
12:35 PM21 °FSunny.25 mph38%30.11 "Hg10 mi
12:15 PM21 °FSunny.22 mph38%30.13 "Hg10 mi
11:55 AM21 °FSunny.25 mph38%30.13 "Hg10 mi
11:35 AM19 °FSunny.20 mph42%30.14 "Hg10 mi
11:15 AM19 °FSunny.22 mph42%30.15 "Hg10 mi
10:35 AM19 °FSunny.21 mph38%30.14 "Hg10 mi
10:15 AM18 °FSunny.28 mph41%30.14 "Hg10 mi
9:55 AM18 °FSunny.15 mph41%30.14 "Hg10 mi
9:35 AM16 °FSunny.23 mph45%30.13 "Hg10 mi
9:15 AM16 °FSunny.21 mph45%30.12 "Hg10 mi
8:55 AM16 °FSunny.22 mph41%30.12 "Hg10 mi
8:35 AM14 °FSunny.22 mph48%30.12 "Hg10 mi
8:15 AM14 °FSunny.17 mph44%30.12 "Hg10 mi
Weather by CustomWeather, © 2014

See weather overviewHow to use our weather pages